Flag for Czech Republic Weather past 2 weeks in Brno, Czech Republic

Now
39 °F

Scattered clouds.


Feels Like: 32 °F
Forecast: 33 / 45 °F
Wind: 12 mph from Northwest

Location: Brno / Turany

Current Time: Mar 3, 2015 at 10:10:26 AM

Latest Report: Mar 3, 2015 at 9:00 AM


Visibility: 25 mi

Pressure: 30.14 "Hg

Humidity: 53%

Dew point: 24 °F

Location of BrnoLocation

Historic Weather in Brno — Graph

°F

Brno temperature yesterday

Maximum temperature yesterday: 49 °F (at 3:00 PM)
Minimum temperature yesterday: 35 °F (at 2:00 AM)
Average temperature yesterday: 41 °F

Past Weeks' High & Low Weather Summary

 TemperatureHumidityPressure
High49 °F (Feb 21, 4:00 PM)98% (Feb 24, 8:00 AM)30.79 "Hg (Feb 24, 8:00 AM)
Low27 °F (Feb 17, 5:00 AM)46% (Feb 21, 4:00 PM)29.58 "Hg (Feb 23, 4:00 PM)
Average38 °F78%30.06 "Hg
* Reported Feb 16 8:00 AM — Mar 3 8:00 AM, Brno, Weather by CustomWeather, © 2015

Note: Actual official high and low records may vary slightly from our data, if they occured in-between our weather recording intervals... More about our weather records

Advertising

Brno weather history for previous 24 hours

 ConditionsComfort  
Time TempWeatherWind HumidityBarometerVisibility
8:00 AM
Tue, Mar 3
38 °FPassing clouds.8 mph55%30.11 "Hg25 mi
7:00 AM37 °FPartly sunny.7 mph63%30.09 "Hg22 mi
6:00 AM36 °FPassing clouds.6 mph64%30.07 "Hg19 mi
5:00 AM36 °FPassing clouds.7 mph64%30.05 "Hg19 mi
4:00 AM36 °FPassing clouds.6 mph68%30.01 "Hg19 mi
3:00 AM39 °FOvercast.10 mph65%29.97 "Hg19 mi
2:00 AM35 °FOvercast.3 mph88%29.96 "Hg12 mi
1:00 AM36 °FPassing clouds.5 mph85%29.93 "Hg12 mi
12:00 AM35 °FPassing clouds.1 mph81%29.91 "Hg12 mi
11:00 PM
Mon, Mar 2
35 °FPassing clouds.3 mph77%29.90 "Hg12 mi
9:00 PM38 °FPassing clouds.3 mph72%29.86 "Hg16 mi
8:00 PM39 °FPassing clouds.6 mph70%29.83 "Hg16 mi
7:00 PM40 °FPassing clouds.7 mph66%29.80 "Hg19 mi
6:00 PM42 °FPassing clouds.7 mph66%29.77 "Hg22 mi
5:00 PM44 °FPartly sunny.9 mph64%29.73 "Hg25 mi
4:00 PM47 °FOvercast.9 mph57%29.70 "Hg25 mi
3:00 PM49 °FOvercast.10 mph57%29.67 "Hg22 mi
2:00 PM48 °FOvercast.8 mph58%29.67 "Hg25 mi
1:00 PM45 °FSprinkles. Overcast.8 mph66%29.67 "Hg22 mi
12:00 PM46 °FOvercast.3 mph78%29.64 "Hg25 mi
11:00 AM44 °FRain. Low clouds.8 mph93%29.65 "Hg3 mi
10:00 AM45 °FOvercast.5 mph93%29.62 "Hg4 mi
Weather by CustomWeather, © 2015

See weather overviewHow to use our weather pages